Showing default

GONETS-M 25, 54152

Orbit data source: Space-Track

GONETS-M 25, 54152 is a payload satellite owned by Gonets (CIS) in LEO that was launched on Sat, 22 Oct 2022 UTC via a SOYUZ-2-1B launch vehicle from the Vostochny Cosmodrome (VOSTO). Payload-class satellites include a variety of spacecraft equipped with specific instruments for various scientific and technological missions. These include communications satellites like Starlink; space stations such as the ISS; scientific satellites like the Hubble; Earth observation satellites from companies like Planet Labs, Umbra, and HawkEye 360; GPS; miniature CubeSats for education and research; and military/defense satellites.

Loading next visibility...
Identifier
54152, 2022-139C
Orbit
LEO
Country
Flag of CISCIS
Related business
Manufacturer
Resehetnev ISS
Mission
Operational Commercial Communications
Bus & Motor
STRELA-3M, Unknown motor
Mass
280 kg wet, 280 kg dry
Launch date (UTC)
2022-10-22 (4 years ago)
Launch vehicle
SOYUZ-2-1B
Launch site
Vostochny Cosmodrome (VOSTO)
Object type
Payload
Rocket body
Debris
Shape & HBR
Cyl + 1 Ant, 3.5 m
Radar Cross Section
1.583 m², Large (>1 m²)

Expand to show TLE details & history
Last TLE update: 1 day ago

TLE from 1 day ago
0 GONETS-M 25
1 54152U 22139C   26172.48858718  .00000035  00000-0  17936-3 0  9998
2 54152  82.5055 345.3662 0020071 219.0334 140.9298 12.42890143166184
Epoch: 2026-06-21T11:43Z
TLE epoch observation values (Epoch: 2026-06-21T11:43:33.932Z)
Latitude
-0.00003°
Longitude
-100.21332°
Altitude
1,509.357 km
Speed
7.105 km/s
True Right ascension
23h 01m 27s
True Declination
0° 00' 00"
Sunlit
Object was in daylight at epoch
Visualization orbit readout
Latitude
Unknown
Longitude
Unknown
Altitude
Unknown
Speed
Unknown
Apparent Right ascension
Unknown
Apparent Declination
Unknown
Sunlit
N/A
Visualization observer readout
Local Sidereal Time
23:19:51
Azimuth
Unknown
Elevation
Unknown
Doppler factor
Unknown
Orbital elements
Apogee altitude
1,507.522 km
Perigee altitude
1,475.931 km
Semi-major axis
7,869.863 km
Eccentricity
0.00201
Inclination
82.5055°
RAAN
345.3662°
Arg. of periapsis
219.0334°
True anomaly
141.07448°
Mean anomaly
140.9298°
Eccentric anomaly
141.00217°
Mean motion
3.1088 °/min
Orbital period
115.8 mins
BSTAR
0.00017936
Loading maneuver chart data...
Computing Atmospheric mass density...
Loading historical data...
Loading historical data...
Loading historical data...
Loading historical data...
Loading historical data...
Loading historical data...
Loading historical data...
Other satellites on launch #139 in the year 2022 (2022-10-22 UTC)

Documentation

Showing up to 5 results
|